TimeEST,TemperatureF,Dew PointF,Humidity,Sea Level PressureIn,VisibilityMPH,Wind Direction,Wind SpeedMPH,Gust SpeedMPH,PrecipitationIn,Events,Conditions,WindDirDegrees,DateUTC
12:51 AM,1.9,-2.9,80,30.05,10.0,Calm,Calm,-,N/A,,Mostly Cloudy,0,2013-01-23 05:51:00
1:51 AM,1.0,-2.0,87,30.05,10.0,Calm,Calm,-,N/A,,Overcast,0,2013-01-23 06:51:00
2:51 AM,7.0,-0.9,70,30.04,8.0,West,12.7,19.6,0.00,,Mostly Cloudy,280,2013-01-23 07:51:00
3:51 AM,7.0,-9.9,46,30.05,10.0,West,19.6,27.6,N/A,,Overcast,280,2013-01-23 08:51:00
4:51 AM,3.9,-7.1,60,30.07,10.0,NNW,11.5,-,N/A,,Overcast,330,2013-01-23 09:51:00
5:51 AM,1.0,-7.1,69,30.10,10.0,NNW,9.2,-,N/A,,Partly Cloudy,330,2013-01-23 10:51:00
6:51 AM,-0.9,-9.0,69,30.11,10.0,North,6.9,-,N/A,,Clear,350,2013-01-23 11:51:00
7:51 AM,-0.9,-9.9,66,30.13,10.0,NNW,6.9,-,N/A,,Clear,330,2013-01-23 12:51:00
8:51 AM,1.0,-9.9,60,30.14,10.0,North,10.4,-,N/A,,Clear,360,2013-01-23 13:51:00
9:51 AM,3.0,-9.9,55,30.15,10.0,NNW,6.9,-,N/A,,Clear,330,2013-01-23 14:51:00
10:51 AM,5.0,-11.0,48,30.13,10.0,NNW,10.4,-,N/A,,Partly Cloudy,330,2013-01-23 15:51:00
11:51 AM,7.0,-11.0,44,30.11,10.0,NNW,12.7,17.3,N/A,,Clear,340,2013-01-23 16:51:00
12:51 PM,8.6,-11.2,40,30.06,10.0,NNW,9.2,-,N/A,,Clear,340,2013-01-23 17:51:00
1:51 PM,8.1,-13.0,38,30.08,10.0,NNW,15.0,-,N/A,,Clear,330,2013-01-23 18:51:00
2:51 PM,9.0,-13.0,36,30.09,10.0,NNW,12.7,-,N/A,,Clear,330,2013-01-23 19:51:00
3:51 PM,8.1,-17.0,31,30.09,10.0,WNW,13.8,27.6,N/A,,Clear,300,2013-01-23 20:51:00
4:51 PM,6.1,-17.0,34,30.11,10.0,WNW,12.7,-,N/A,,Clear,290,2013-01-23 21:51:00
5:51 PM,3.9,-16.1,39,30.12,10.0,NW,9.2,-,N/A,,Clear,310,2013-01-23 22:51:00
6:51 PM,3.0,-16.1,41,30.13,10.0,NNW,4.6,-,N/A,,Clear,330,2013-01-23 23:51:00
7:51 PM,1.9,-15.0,45,30.13,10.0,NW,8.1,-,N/A,,Clear,320,2013-01-24 00:51:00
8:51 PM,-0.4,-14.8,51,30.10,10.0,NW,8.1,-,N/A,,Clear,310,2013-01-24 01:51:00
9:51 PM,-0.9,-14.1,54,30.14,10.0,NW,3.5,-,N/A,,Clear,320,2013-01-24 02:51:00
10:51 PM,-0.9,-15.0,52,30.13,10.0,WNW,8.1,-,N/A,,Clear,290,2013-01-24 03:51:00
11:51 PM,-4.0,-15.0,59,30.13,10.0,Calm,Calm,-,N/A,,Clear,0,2013-01-24 04:51:00